Powrót do katalogu

STARLINK-37099

AktywnyŁącznośćSSO
NORAD 68301·PAYLOAD·🇺🇸 United States

Wystrzelony Mar 20, 2026 z Vandenberg Space Force Base

Loading…

Następne Przeloty (najbliższe 24 godziny)

TLE

ŚwieżeSource: CelesTrak SupGP

Epoka: Sep 15, 2026, 03:18 UTC

1 68301C 26057H   26258.13798611 -.00040931  00000+0 -12702-2 0  2587
2 68301  97.2855  23.5762 0001125  81.0203 123.5122 15.33469152    10

Śledź STARLINK-37099 w czasie rzeczywistym z AllMySat

Download on the App Store